Home   Weather   Budapest   Past weeks

Flag for Hungary Past Weather in Budapest, Hungary — Yesterday and Last 2 Weeks

46 °F

Passing clouds.

Feels Like: 43 °F
Forecast: 53 / 65 °F
Wind: 7 mph from East

Location: Ferenc Liszt International Airport

Current Time: Oct 24, 2016 at 2:00:25 AM

Latest Report: Oct 24, 2016 at 1:30 AM

Visibility: 5 mi

Pressure: 30.18 "Hg

Humidity: 100%

Dew Point: 46 °F

Location of BudapestLocation

Past Weather in Budapest — Graph


Budapest Temperature Yesterday

Maximum temperature yesterday: 50 °F (at 12:30 PM)
Minimum temperature yesterday: 34 °F (at 6:00 AM)
Average temperature yesterday: 45 °F

High & Low Weather Summary for the Past Weeks

High63 °F (Oct 16, 3:30 PM)100% (Oct 9, 12:30 AM)30.39 "Hg (Oct 9, 12:30 AM)
Low32 °F (Oct 10, 4:00 AM)41% (Oct 9, 12:30 PM)29.83 "Hg (Oct 12, 3:00 AM)
Average48 °F86%30.11 "Hg
* Reported Oct 9 12:00 AM — Oct 24 12:30 AM, Budapest, Weather by CustomWeather, © 2016

Note: Actual official high and low records may vary slightly from our data, if they occured in-between our weather recording intervals... More about our weather records


Budapest Weather History for the Previous 24 Hours

Scroll right to see more
Time TempWeatherWind HumidityBarometerVisibility
12:30 AM
Mon, Oct 24
50 °FClear.8 mph94%30.18 "Hg5 mi
12:00 AM48 °FClear.7 mph94%30.18 "Hg5 mi
11:30 PM
Sun, Oct 23
48 °FPartly cloudy.7 mph94%30.18 "Hg5 mi
11:00 PM48 °FPassing clouds.9 mph94%30.18 "Hg5 mi
10:30 PM50 °FLow clouds.8 mph94%30.18 "Hg5 mi
10:00 PM50 °FLow clouds.8 mph94%30.18 "Hg4 mi
9:30 PM50 °FOvercast.9 mph94%30.18 "Hg4 mi
9:00 PM50 °FOvercast.9 mph94%30.18 "Hg4 mi
8:30 PM50 °FPassing clouds.9 mph94%30.15 "Hg4 mi
8:00 PM50 °FOvercast.7 mph94%30.15 "Hg5 mi
7:30 PM50 °FOvercast.8 mph88%30.15 "Hg5 mi
7:00 PM50 °FOvercast.9 mph94%30.15 "Hg5 mi
6:30 PM50 °FPassing clouds.7 mph88%30.15 "Hg5 mi
6:00 PM50 °FPassing clouds.8 mph88%30.15 "Hg5 mi
5:30 PM50 °FPartly sunny.7 mph88%30.15 "Hg4 mi
5:00 PM50 °FPartly sunny.8 mph88%30.15 "Hg4 mi
4:30 PM50 °FPartly sunny.8 mph88%30.15 "Hg4 mi
4:00 PM50 °FPartly sunny.9 mph82%30.15 "Hg4 mi
3:30 PM50 °FPartly sunny.9 mph82%30.15 "Hg4 mi
3:00 PM50 °FPartly sunny.9 mph82%30.15 "Hg4 mi
2:30 PM50 °FPartly sunny.10 mph88%30.15 "Hg4 mi
2:00 PM50 °FPartly sunny.10 mph82%30.15 "Hg4 mi
1:30 PM50 °FPartly sunny.12 mph88%30.15 "Hg4 mi
1:00 PM50 °FFog.10 mph88%30.15 "Hg3 mi
12:30 PM50 °FFog.6 mph88%30.18 "Hg3 mi
12:00 PM48 °FFog.6 mph94%30.18 "Hg3 mi
11:30 AM46 °FFog.6 mph93%30.15 "Hg2 mi
11:00 AM45 °FFog.5 mph100%30.15 "Hg2 mi
10:30 AM43 °FFog.6 mph100%30.15 "Hg2 mi
10:00 AM43 °FFog.8 mph93%30.15 "Hg2 mi
9:30 AM43 °FFog.8 mph93%30.15 "Hg2 mi
9:00 AM43 °FFog.No wind93%30.15 "Hg3 mi
8:30 AM43 °FFog.6 mph87%30.15 "Hg3 mi
8:00 AM34 °FFog.2 mph100%30.12 "Hg3 mi
7:30 AM34 °FFog.2 mph93%30.12 "Hg3 mi
7:00 AM34 °FFog.1 mph93%30.12 "Hg4 mi
6:30 AM34 °FFog.2 mph93%30.12 "Hg5 mi
6:00 AM34 °FClear.2 mph100%30.12 "Hg10 mi
5:30 AM36 °FClear.3 mph100%30.12 "Hg10 mi
5:00 AM39 °FClear.No wind87%30.12 "Hg10 mi
4:30 AM41 °FClear.3 mph87%30.12 "Hg10 mi
4:00 AM41 °FClear.2 mph87%30.12 "Hg10 mi
3:30 AM41 °FClear.7 mph87%30.12 "Hg10 mi
3:00 AM37 °FClear.3 mph93%30.12 "Hg10 mi
2:30 AM39 °FClear.1 mph93%30.12 "Hg10 mi
2:00 AM41 °FClear.1 mph87%30.12 "Hg10 mi
Weather by CustomWeather, © 2016

See weather overviewHow to use our weather pages